Location: Newark
(23.2528°N, 105.1886°E)
Time: 23:35:16
(UTC+00:00)

Envisat - Visible Passes

Search period start: 20 October 2019 00:00
Search period end: 30 October 2019 00:00
Orbit: 764 x 766 km, 98.1° (Epoch: 20 October)

Date Brightness Start Highest point End Pass type
(mag) Time Alt. Az. Time Alt. Az. Time Alt. Az.
20 Oct 3.5 10:45:08 10° SE 10:49:46 37° ENE 10:54:24 10° N visible
20 Oct 5.9 12:25:45 10° SW 12:28:45 16° W 12:31:47 10° WNW visible
21 Oct 4.3 11:47:08 10° S 11:51:54 41° W 11:56:40 10° NNW visible
21 Oct 6.8 22:30:31 10° E 22:31:15 10° E 22:31:58 10° ESE visible
22 Oct 2.9 11:10:07 10° SSE 11:15:10 74° ENE 11:20:13 10° N visible
23 Oct 5.5 12:13:40 10° SW 12:17:27 21° W 12:21:15 10° NW visible
24 Oct 3.7 11:35:40 10° S 11:40:38 56° W 11:45:36 10° NNW visible
25 Oct 3.1 10:59:00 10° SSE 11:03:56 55° ENE 11:08:53 10° N visible
26 Oct 5.0 12:01:52 10° SSW 12:06:09 28° W 12:10:28 10° NW visible
27 Oct 3.2 11:24:19 10° S 11:29:22 75° WSW 11:34:26 10° NNW visible
28 Oct 3.4 10:47:59 10° SE 10:52:43 41° ENE 10:57:27 10° N visible
28 Oct 6.0 12:29:09 10° SW 12:31:45 14° W 12:34:22 10° WNW visible
29 Oct 4.5 11:50:13 10° SSW 11:54:51 37° W 11:59:33 10° NNW visible
29 Oct 6.6 22:32:26 10° ENE 22:34:14 12° E 22:36:03 10° ESE visible
